| time (UTC) | temp F | wind direction | speed knots | gust knots | rain 1hr in | rain 24hr in | rain mn in | humidity % | barometer mb |
| 20260505052325 | 50 | 100 | 0.0 | 0.0 | 0.00 | 0.02 | 0.02 | 85 | 1013.5 |
| 20260505051822 | 51 | 100 | 0.0 | 0.0 | 0.00 | 0.02 | 0.02 | 86 | 1013.2 |
| 20260505051320 | 51 | 100 | 0.0 | 0.0 | 0.00 | 0.02 | 0.02 | 86 | 1013.3 |
| 20260505050818 | 51 | 99 | 0.0 | 0.9 | 0.00 | 0.02 | 0.02 | 85 | 1013.3 |
| 20260505050316 | 51 | 105 | 0.0 | 0.0 | 0.00 | 0.02 | 0.02 | 85 | 1013.2 |
| 20260505041746 | 51 | 112 | 0.0 | 0.0 | 0.00 | 0.02 | 0.02 | 86 | 1013.0 |
| 20260505041243 | 51 | 115 | 0.0 | 0.0 | 0.00 | 0.02 | 0.02 | 85 | 1012.9 |
| 20260505040740 | 51 | 111 | 0.0 | 0.0 | 0.00 | 0.02 | 0.02 | 85 | 1013.0 |
| 20260505040238 | 51 | 190 | 1.7 | 2.6 | 0.00 | 0.02 | 0.02 | 85 | 1013.1 |
| 20260505035735 | 51 | 105 | 0.0 | 0.0 | 0.00 | 0.02 | 0.02 | 85 | 1012.8 |
| 20260505035230 | 51 | 99 | 0.0 | 0.0 | 0.00 | 0.02 | 0.02 | 85 | 1012.8 |
| 20260505034727 | 51 | 95 | 0.0 | 0.9 | 0.00 | 0.02 | 0.02 | 86 | 1012.8 |
| 20260505034224 | 51 | 81 | 0.0 | 0.0 | 0.00 | 0.02 | 0.02 | 87 | 1012.7 |
| 20260505033721 | 51 | 75 | 0.0 | 0.0 | 0.00 | 0.02 | 0.02 | 87 | 1012.5 |
| 20260505033219 | 51 | 75 | 0.0 | 0.0 | 0.00 | 0.02 | 0.02 | 86 | 1012.5 |
| 20260505032716 | 51 | 75 | 0.0 | 0.0 | 0.00 | 0.02 | 0.02 | 86 | 1012.3 |
| 20260505032207 | 51 | 75 | 0.0 | 0.0 | 0.00 | 0.02 | 0.02 | 85 | 1012.7 |
| 20260505031704 | 51 | 75 | 0.0 | 0.0 | 0.00 | 0.02 | 0.02 | 85 | 1012.5 |
| 20260505031200 | 51 | 75 | 0.0 | 0.0 | 0.00 | 0.02 | 0.02 | 84 | 1012.4 |
| 20260505030657 | 51 | 75 | 0.0 | 0.0 | 0.00 | 0.02 | 0.02 | 84 | 1012.3 |
| 20260505030153 | 51 | 76 | 0.0 | 0.0 | 0.00 | 0.02 | 0.02 | 84 | 1012.2 |
| 20260505025649 | 51 | 103 | 0.0 | 0.0 | 0.00 | 0.02 | 0.02 | 83 | 1012.0 |
| 20260505025148 | 52 | 95 | 0.9 | 1.7 | 0.00 | 0.02 | 0.02 | 82 | 1012.1 |
| 20260505024645 | 52 | 71 | 0.0 | 0.9 | 0.00 | 0.02 | 0.02 | 82 | 1012.1 |
| 20260505024142 | 52 | 76 | 0.0 | 0.0 | 0.00 | 0.02 | 0.02 | 86 | 1012.0 |
| 20260505023639 | 52 | 88 | 0.0 | 0.0 | 0.00 | 0.02 | 0.02 | 86 | 1011.9 |
| 20260505023137 | 52 | 77 | 0.0 | 0.0 | 0.00 | 0.02 | 0.02 | 86 | 1012.0 |
| 20260505022634 | 52 | 65 | 0.0 | 0.0 | 0.00 | 0.02 | 0.02 | 86 | 1011.7 |
| 20260505022131 | 52 | 62 | 0.0 | 0.0 | 0.00 | 0.02 | 0.02 | 85 | 1011.6 |
| 20260505021627 | 52 | 74 | 0.0 | 0.0 | 0.00 | 0.02 | 0.02 | 85 | 1011.5 |
| 20260505021124 | 52 | 65 | 0.0 | 0.0 | 0.00 | 0.02 | 0.02 | 84 | 1011.9 |
| 20260505020614 | 52 | 67 | 0.0 | 0.0 | 0.00 | 0.02 | 0.02 | 83 | 1012.2 |
| 20260505020111 | 52 | 69 | 0.0 | 0.0 | 0.05 | 0.02 | 0.02 | 82 | 1012.0 |
| 20260505015608 | 53 | 71 | 0.0 | 0.0 | 0.12 | 0.02 | 0.02 | 80 | 1012.3 |
| 20260505015105 | 53 | 51 | 0.9 | 0.9 | 0.07 | 0.01 | 0.01 | 76 | 1012.2 |
| 20260505014601 | 55 | 55 | 1.7 | 1.7 | 0.00 | 0.00 | 0.00 | 71 | 1012.0 |
| 20260505014059 | 56 | 58 | 0.0 | 0.0 | 0.00 | 0.00 | 0.00 | 68 | 1011.9 |
| 20260505013556 | 56 | 82 | 0.0 | 0.0 | 0.00 | 0.00 | 0.00 | 63 | 1011.9 |
| 20260505013053 | 56 | 59 | 0.0 | 0.9 | 0.00 | 0.00 | 0.00 | 61 | 1011.9 |
| 20260505012551 | 56 | 0 | 0.9 | 0.9 | 0.00 | 0.00 | 0.00 | 60 | 1011.6 |
| 20260505012048 | 57 | 68 | 3.5 | 5.2 | 0.00 | 0.00 | 0.00 | 60 | 1011.9 |
| 20260505011543 | 57 | 77 | 0.9 | 1.7 | 0.00 | 0.00 | 0.00 | 59 | 1011.6 |
| 20260505011041 | 58 | 27 | 1.7 | 1.7 | 0.00 | 0.00 | 0.00 | 56 | 1011.5 |
| 20260505010536 | 59 | 3 | 2.6 | 5.2 | 0.00 | 0.00 | 0.00 | 54 | 1011.5 |
| 20260505010033 | 59 | 44 | 1.7 | 2.6 | 0.00 | 0.00 | 0.00 | 54 | 1011.3 |
| 20260505005529 | 59 | 57 | 0.0 | 0.0 | 0.00 | 0.00 | 0.00 | 55 | 1011.0 |
| 20260505005027 | 58 | 63 | 0.0 | 0.9 | 0.00 | 0.00 | 0.00 | 56 | 1011.2 |
| 20260505004523 | 58 | 83 | 0.0 | 0.0 | 0.00 | 0.00 | 0.00 | 56 | 1011.3 |
| 20260505004020 | 58 | 65 | 0.0 | 0.0 | 0.00 | 0.00 | 0.00 | 57 | 1011.2 |
| 20260505003517 | 58 | 67 | 0.0 | 0.0 | 0.00 | 0.00 | 0.00 | 56 | 1010.9 |
| 20260505003014 | 58 | 90 | 0.0 | 0.0 | 0.00 | 0.00 | 0.00 | 59 | 1011.3 |
| 20260505002509 | 58 | 104 | 0.0 | 0.0 | 0.00 | 0.00 | 0.00 | 57 | 1011.0 |
| 20260505002008 | 58 | 122 | 1.7 | 2.6 | 0.00 | 0.00 | 0.00 | 55 | 1011.0 |
| 20260505001505 | 58 | 98 | 0.0 | 0.0 | 0.00 | 0.00 | 0.00 | 57 | 1011.0 |
| 20260505001002 | 58 | 110 | 0.0 | 0.9 | 0.00 | 0.00 | 0.00 | 56 | 1011.2 |
| 20260505000500 | 59 | 98 | 1.7 | 1.7 | 0.00 | 0.00 | 0.00 | 55 | 1011.3 |
| 20260504235956 | 59 | 80 | 0.9 | 1.7 | 0.00 | 0.00 | 0.00 | 52 | 1011.2 |
| 20260504235453 | 59 | 111 | 1.7 | 1.7 | 0.00 | 0.00 | 0.00 | 55 | 1011.3 |
| 20260504234950 | 60 | 90 | 0.0 | 0.0 | 0.00 | 0.00 | 0.00 | 53 | 1010.9 |
| 20260504234447 | 60 | 133 | 0.0 | 0.9 | 0.00 | 0.00 | 0.00 | 49 | 1010.8 |
| 20260504233943 | 61 | 136 | 1.7 | 2.6 | 0.00 | 0.00 | 0.00 | 48 | 1010.9 |
| 20260504233439 | 62 | 183 | 3.5 | 5.2 | 0.00 | 0.00 | 0.00 | 47 | 1010.6 |
| 20260504232937 | 65 | 134 | 0.9 | 1.7 | 0.00 | 0.00 | 0.00 | 37 | 1010.4 |
| 20260504232434 | 65 | 92 | 0.0 | 0.9 | 0.00 | 0.00 | 0.00 | 36 | 1010.2 |
| 20260504231931 | 65 | 65 | 0.9 | 1.7 | 0.00 | 0.00 | 0.00 | 35 | 1010.0 |
| 20260504231427 | 65 | 59 | 0.0 | 0.9 | 0.00 | 0.00 | 0.00 | 35 | 1010.0 |
| 20260504230923 | 65 | 64 | 0.0 | 0.0 | 0.00 | 0.00 | 0.00 | 35 | 1009.8 |
| 20260504230420 | 66 | 61 | 0.0 | 0.0 | 0.00 | 0.00 | 0.00 | 35 | 1009.5 |
| 20260504225919 | 66 | 64 | 0.0 | 0.0 | 0.00 | 0.00 | 0.00 | 34 | 1009.4 |
| 20260504225416 | 66 | 79 | 0.0 | 0.0 | 0.00 | 0.00 | 0.00 | 35 | 1009.5 |
| 20260504224913 | 66 | 60 | 0.9 | 0.9 | 0.00 | 0.00 | 0.00 | 35 | 1009.5 |
| 20260504224409 | 67 | 58 | 1.7 | 1.7 | 0.00 | 0.00 | 0.00 | 35 | 1009.8 |
| 20260504223907 | 67 | 17 | 2.6 | 2.6 | 0.00 | 0.00 | 0.00 | 34 | 1009.8 |
| 20260504223402 | 67 | 322 | 3.5 | 5.2 | 0.00 | 0.00 | 0.00 | 35 | 1009.5 |
| 20260504222858 | 67 | 341 | 1.7 | 1.7 | 0.00 | 0.00 | 0.00 | 35 | 1009.8 |
| 20260504222355 | 68 | 70 | 0.0 | 0.9 | 0.00 | 0.00 | 0.00 | 34 | 1009.7 |
| 20260504221854 | 68 | 87 | 0.0 | 0.0 | 0.00 | 0.00 | 0.00 | 34 | 1009.8 |
| 20260504221350 | 68 | 76 | 0.0 | 0.9 | 0.00 | 0.00 | 0.00 | 34 | 1009.8 |
| 20260504220847 | 67 | 10 | 0.9 | 1.7 | 0.00 | 0.00 | 0.00 | 34 | 1009.8 |
| 20260504220344 | 67 | 325 | 2.6 | 3.5 | 0.00 | 0.00 | 0.00 | 34 | 1010.1 |
| 20260504215841 | 67 | 64 | 0.0 | 0.9 | 0.00 | 0.00 | 0.00 | 35 | 1010.0 |
| 20260504215337 | 67 | 50 | 0.9 | 0.9 | 0.00 | 0.00 | 0.00 | 34 | 1010.2 |
| 20260504214834 | 67 | 40 | 2.6 | 3.5 | 0.00 | 0.00 | 0.00 | 34 | 1010.0 |
| 20260504214331 | 67 | 45 | 1.7 | 2.6 | 0.00 | 0.00 | 0.00 | 35 | 1010.1 |
| 20260504213827 | 67 | 54 | 1.7 | 2.6 | 0.00 | 0.00 | 0.00 | 34 | 1010.4 |
| 20260504213323 | 68 | 43 | 0.9 | 0.9 | 0.00 | 0.00 | 0.00 | 34 | 1010.2 |
| 20260504212821 | 68 | 69 | 0.0 | 0.0 | 0.00 | 0.00 | 0.00 | 34 | 1010.4 |
| 20260504212317 | 67 | 341 | 3.5 | 5.2 | 0.00 | 0.00 | 0.00 | 34 | 1010.2 |
| 20260504211815 | 68 | 43 | 1.7 | 2.6 | 0.00 | 0.00 | 0.00 | 34 | 1010.0 |
| 20260504211310 | 68 | 23 | 2.6 | 2.6 | 0.00 | 0.00 | 0.00 | 34 | 1010.1 |
| 20260504210808 | 69 | 36 | 0.9 | 1.7 | 0.00 | 0.00 | 0.00 | 33 | 1010.1 |
| 20260504210305 | 71 | 43 | 3.5 | 5.2 | 0.00 | 0.00 | 0.00 | 32 | 1009.8 |
| 20260504205802 | 71 | 326 | 1.7 | 1.7 | 0.00 | 0.00 | 0.00 | 31 | 1010.1 |
| 20260504205300 | 72 | 327 | 2.6 | 3.5 | 0.00 | 0.00 | 0.00 | 31 | 1009.8 |
| 20260504204758 | 70 | 333 | 5.2 | 8.7 | 0.00 | 0.00 | 0.00 | 32 | 1009.8 |
| 20260504204256 | 70 | 324 | 2.6 | 5.2 | 0.00 | 0.00 | 0.00 | 31 | 1009.5 |
| 20260504203755 | 69 | 59 | 3.5 | 5.2 | 0.00 | 0.00 | 0.00 | 31 | 1009.7 |
| 20260504203253 | 69 | 353 | 3.5 | 5.2 | 0.00 | 0.00 | 0.00 | 31 | 1009.5 |
| 20260504202752 | 69 | 358 | 3.5 | 3.5 | 0.00 | 0.00 | 0.00 | 31 | 1009.5 |
| 20260504202250 | 69 | 81 | 4.3 | 5.2 | 0.00 | 0.00 | 0.00 | 31 | 1009.4 |
| 20260504201747 | 69 | 354 | 2.6 | 2.6 | 0.00 | 0.00 | 0.00 | 31 | 1009.8 |
| 20260504201244 | 69 | 77 | 0.0 | 0.9 | 0.00 | 0.00 | 0.00 | 31 | 1009.7 |
| 20260504200742 | 69 | 59 | 5.2 | 7.8 | 0.00 | 0.00 | 0.00 | 30 | 1009.5 |
| 20260504200237 | 69 | 65 | 0.9 | 1.7 | 0.00 | 0.00 | 0.00 | 30 | 1009.7 |
| 20260504195734 | 69 | 280 | 2.6 | 3.5 | 0.00 | 0.00 | 0.00 | 30 | 1009.4 |
| 20260504195230 | 69 | 349 | 7.8 | 13.9 | 0.00 | 0.00 | 0.00 | 30 | 1009.3 |
| 20260504194728 | 69 | 26 | 7.8 | 11.3 | 0.00 | 0.00 | 0.00 | 29 | 1009.4 |
| 20260504194223 | 71 | 359 | 3.5 | 7.0 | 0.00 | 0.00 | 0.00 | 28 | 1009.3 |
| 20260504193720 | 71 | 219 | 0.9 | 1.7 | 0.00 | 0.00 | 0.00 | 27 | 1009.2 |
| 20260504193218 | 71 | 9 | 3.5 | 5.2 | 0.00 | 0.00 | 0.00 | 27 | 1009.3 |
| 20260504192716 | 73 | 63 | 7.8 | 12.2 | 0.00 | 0.00 | 0.00 | 25 | 1009.1 |
| 20260504192213 | 73 | 14 | 2.6 | 5.2 | 0.00 | 0.00 | 0.00 | 23 | 1008.9 |
| 20260504191712 | 73 | 14 | 3.5 | 3.5 | 0.00 | 0.00 | 0.00 | 25 | 1009.0 |
| 20260504191208 | 74 | 299 | 3.5 | 5.2 | 0.00 | 0.00 | 0.00 | 24 | 1008.9 |
| 20260504190703 | 74 | 20 | 2.6 | 3.5 | 0.00 | 0.00 | 0.00 | 24 | 1008.9 |
| 20260504190200 | 73 | 61 | 0.9 | 1.7 | 0.00 | 0.00 | 0.00 | 25 | 1009.1 |
| 20260504185657 | 73 | 61 | 5.2 | 6.1 | 0.00 | 0.00 | 0.00 | 24 | 1008.9 |
| 20260504185153 | 74 | 288 | 3.5 | 5.2 | 0.00 | 0.00 | 0.00 | 24 | 1008.7 |
| 20260504184650 | 76 | 70 | 2.6 | 3.5 | 0.00 | 0.00 | 0.00 | 24 | 1008.7 |
| 20260504184145 | 77 | 74 | 0.0 | 0.0 | 0.00 | 0.00 | 0.00 | 23 | 1008.7 |
| 20260504183642 | 77 | 61 | 0.9 | 0.9 | 0.00 | 0.00 | 0.00 | 23 | 1009.0 |
| 20260504183139 | 77 | 33 | 3.5 | 5.2 | 0.00 | 0.00 | 0.00 | 22 | 1009.2 |
| 20260504182637 | 77 | 41 | 0.0 | 0.9 | 0.00 | 0.00 | 0.00 | 24 | 1009.1 |
| 20260504182135 | 75 | 106 | 0.9 | 0.9 | 0.00 | 0.00 | 0.00 | 25 | 1009.0 |
| 20260504181632 | 75 | 220 | 2.6 | 3.5 | 0.00 | 0.00 | 0.00 | 25 | 1008.9 |
| 20260504181129 | 77 | 96 | 1.7 | 2.6 | 0.00 | 0.00 | 0.00 | 24 | 1008.9 |
| 20260504180628 | 77 | 39 | 0.9 | 0.9 | 0.00 | 0.00 | 0.00 | 24 | 1009.1 |
| 20260504180127 | 75 | 103 | 0.9 | 1.7 | 0.00 | 0.00 | 0.00 | 25 | 1008.7 |
| 20260504175624 | 75 | 131 | 1.7 | 2.6 | 0.00 | 0.00 | 0.00 | 25 | 1009.0 |
| 20260504175120 | 74 | 138 | 1.7 | 2.6 | 0.00 | 0.00 | 0.00 | 24 | 1009.2 |
| 20260504174618 | 76 | 83 | 1.7 | 2.6 | 0.00 | 0.00 | 0.00 | 24 | 1009.0 |
| 20260504174114 | 77 | 99 | 0.9 | 0.9 | 0.00 | 0.00 | 0.00 | 23 | 1009.2 |
| 20260504173611 | 77 | 128 | 0.0 | 0.9 | 0.00 | 0.00 | 0.00 | 24 | 1009.2 |
| 20260504173109 | 75 | 164 | 1.7 | 2.6 | 0.00 | 0.00 | 0.00 | 24 | 1009.4 |
| 20260504172605 | 75 | 153 | 0.9 | 1.7 | 0.00 | 0.00 | 0.00 | 23 | 1009.5 |
| 20260504172102 | 74 | 105 | 0.9 | 1.7 | 0.00 | 0.00 | 0.00 | 24 | 1009.4 |
| 20260504171558 | 74 | 66 | 0.9 | 0.9 | 0.00 | 0.00 | 0.00 | 25 | 1009.5 |
| 20260504171055 | 74 | 26 | 0.9 | 0.9 | 0.00 | 0.00 | 0.00 | 25 | 1009.5 |
| 20260504170551 | 73 | 159 | 3.5 | 3.5 | 0.00 | 0.00 | 0.00 | 24 | 1009.8 |
| 20260504150929 | 58 | 111 | 0.0 | 0.0 | 0.00 | 0.00 | 0.00 | 37 | 1010.5 |
| 20260504150426 | 57 | 103 | 0.0 | 0.0 | 0.00 | 0.00 | 0.00 | 38 | 1010.5 |
| 20260504140847 | 51 | 66 | 0.0 | 0.9 | 0.00 | 0.00 | 0.00 | 45 | 1010.7 |
| 20260504140343 | 51 | 153 | 0.9 | 0.9 | 0.00 | 0.00 | 0.00 | 46 | 1010.7 |
| 20260504130811 | 47 | 134 | 1.7 | 1.7 | 0.00 | 0.00 | 0.00 | 53 | 1010.7 |
| 20260504130307 | 46 | 132 | 0.9 | 0.9 | 0.00 | 0.00 | 0.00 | 54 | 1010.7 |
| 20260504120231 | 42 | 105 | 0.0 | 0.0 | 0.00 | 0.00 | 0.00 | 61 | 1010.7 |
| 20260504110658 | 43 | 108 | 0.0 | 0.0 | 0.00 | 0.00 | 0.00 | 60 | 1010.9 |
| 20260504110154 | 43 | 115 | 0.0 | 0.9 | 0.00 | 0.00 | 0.00 | 60 | 1010.8 |
| 20260504100119 | 45 | 91 | 0.0 | 0.0 | 0.00 | 0.00 | 0.00 | 59 | 1011.3 |
| 20260504081512 | 50 | 64 | 0.0 | 0.0 | 0.00 | 0.00 | 0.00 | 48 | 1012.0 |
| 20260504081007 | 50 | 78 | 0.0 | 0.0 | 0.00 | 0.00 | 0.00 | 48 | 1012.1 |
| 20260504080504 | 50 | 33 | 0.9 | 0.9 | 0.00 | 0.00 | 0.00 | 48 | 1012.0 |